THOR ABLESTAR DEB, 48821

Orbit data source: Space-Track

THOR ABLESTAR DEB, 48821 is space debris in LEO originally from a launch on Thu, 29 Jun 1961 UTC launched from the Air Force Eastern Test Range (AFETR). Debris objects in space refer to the collection of defunct objects orbiting the Earth. Examples of debris include non-operational satellites, rocket bodies, and fragments generated from explosions, collisions, or faulty payload assembly.

Loading next visibility...
Identifier
48821, 1961-015MZ
Orbit
LEO
Country
Flag of USUS
Related business
Manufacturer
Unknown
Mission
Spacecraft
Bus & Motor
Unknown
Mass
Unknown
Launch date (UTC)
1961-06-29 (65 years ago)
Launch vehicle
Unknown
Launch site
Air Force Eastern Test Range (AFETR)
Object type
Payload
Rocket body
Debris
Shape & HBR
Unknown shape, 0.1 m
Radar Cross Section
Small (<0.1 m²)

Expand to show TLE details & history
Last TLE update: 1 day ago

TLE from 1 day ago
0 THOR ABLESTAR DEB
1 48821U 61015MZ  26072.20065952  .00000246  00000-0  78496-3 0  9991
2 48821  67.9316 277.2053 0508780 146.8501 216.5528 12.77371880542167
Epoch: 2026-03-13T04:48Z
TLE epoch observation values (Epoch: 2026-03-13T04:48:56.982Z)
Latitude
0.00004°
Longitude
34.12829°
Altitude
1,676.768 km
Speed
6.888 km/s
True Right ascension
18h 28m 49s
True Declination
0° 00' 00"
Sunlit
Object was in daylight at epoch
Visualization orbit readout
Latitude
Unknown
Longitude
Unknown
Altitude
Unknown
Speed
Unknown
Apparent Right ascension
Unknown
Apparent Declination
Unknown
Sunlit
N/A
Visualization observer readout
Local Sidereal Time
09:27:40
Azimuth
Unknown
Elevation
Unknown
Doppler factor
Unknown
Orbital elements
Apogee altitude
1,743.624 km
Perigee altitude
957.198 km
Semi-major axis
7,728.548 km
Eccentricity
0.05088
Inclination
67.9316°
RAAN
277.2053°
Arg. of periapsis
146.8501°
True anomaly
213.25144°
Mean anomaly
216.5528°
Eccentric anomaly
214.88554°
Mean motion
3.19445 °/min
Orbital period
112.7 mins
BSTAR
0.00078496
Loading maneuver chart data...
Computing Atmospheric mass density...
Loading historical data...
Loading historical data...
Loading historical data...
Loading historical data...
Loading historical data...
Loading historical data...
Loading historical data...

Documentation

Showing up to 5 results
|